View from above orbital plane
|
View from above satellite
|
Ground track
|
The orbit data is extracted from the following two-line orbital elements,
1 25544U 98067A 21067.65130201 .00000794 00000-0 22541-4 0 9992
2 25544 51.6447 119.9786 0003395 82.9416 25.8970 15.49048391273018
Epoch (UTC): | 08 March 2021 15:37:52 |
Eccentricity: | 0.0003395 |
inclination: | 51.6447° |
perigee height: | 417 km |
apogee height: | 422 km |
right ascension of ascending node: | 119.9786° |
argument of perigee: | 82.9416° |
revolutions per day: | 15.49048391 |
mean anomaly at epoch: | 25.8970° |
orbit number at epoch: | 27301 |
The dashed part of the orbit path shows where the satellite is in the earth's shadow,
|
|